Asheville, NC

4:20 AM EDT on October 22, 2019 (GMT -0400)
Asheville Regional

Weather History for KAVL - May, 2019

Change the Weather History Date:

Tuesday, May 7, 2019

  Actual Average Record
Temperature  
Mean Temperature 64 °F 61 °F  
Max Temperature 75 °F 73 °F 89 °F (1940)
Min Temperature 53 °F 49 °F 33 °F (1989)
Degree Days  
Heating Degree Days 1 5  
Month to date heating degree days 1 38  
Since 1 July heating degree days 3528 4110  
Cooling Degree Days 0 1  
Month to date cooling degree days 18 6  
Year to date cooling degree days 35 14  
Growing Degree Days 14 (Base 50)    
Moisture  
Dew Point 56 °F    
Average Humidity 74    
Maximum Humidity 90    
Minimum Humidity 57    
Precipitation  
Precipitation 0.31 in 0.11 in 2.17 in (1992)
Month to date precipitation 1.38 0.80  
Year to date precipitation 25.17 15.39  
Snow  
Snow 0.00 in 0.00 in T in (1992)
Month to date snowfall 0.0 0.0  
Since 1 July snowfall 11.4 9.9  
Snow Depth 0.00 in    
Sea Level Pressure  
Sea Level Pressure 30.15 in    
Wind  
Wind Speed 4 mph (SSE)    
Max Wind Speed 12 mph    
Max Gust Speed 17 mph    
Visibility 9 miles    
Events Rain    
T = Trace of Precipitation, MM = Missing Value Source: NWS Daily Summary

Daily Weather History Graph

Daily Weather History Graph

Search for Another Location

Airport or City:

Astronomy

May. 07, 2019 Rise Set
Actual Time 6:32 AM EDT 8:21 PM EDT
Civil Twilight 6:05 AM EDT 8:48 PM EDT
Nautical Twilight 5:31 AM EDT 9:22 PM EDT
Astronomical Twilight 4:56 AM EDT 9:58 PM EDT
Moon 8:40 AM EDT (5/7) 11:17 PM EDT (5/7)
Length of Visible Light 14h 43m
Length of Day
13h 48m
Waxing Crescent, 8% of the Moon is Illuminated
May 7
Waxing Crescent
May 11
First Quarter
May 18
Full
May 26
Last Quarter
Jun 3
New

Hourly Weather History & Observations

Time (EDT) Temp. Dew Point Humidity Pressure Visibility Wind Dir Wind Speed Gust Speed Precip Events Conditions
12:54 AM 61.0 °F 51.1 °F 70% 30.10 in 10.0 mi Calm Calm - N/A   Mostly Cloudy
1:54 AM 57.9 °F 52.0 °F 81% 30.10 in 10.0 mi Calm Calm - N/A   Partly Cloudy
2:54 AM 55.9 °F 52.0 °F 87% 30.09 in 10.0 mi Calm Calm - N/A   Clear
3:54 AM 55.9 °F 51.1 °F 84% 30.09 in 10.0 mi Calm Calm - N/A   Clear
4:54 AM 55.0 °F 51.1 °F 86% 30.10 in 10.0 mi Calm Calm - N/A   Partly Cloudy
5:54 AM 53.1 °F 50.0 °F 89% 30.11 in 10.0 mi WSW 3.5 mph - N/A   Clear
6:54 AM 54.0 °F 50.0 °F 86% 30.13 in 10.0 mi Calm Calm - N/A   Partly Cloudy
7:54 AM 57.9 °F 52.0 °F 81% 30.16 in 10.0 mi Calm Calm - N/A   Clear
8:45 AM 61.0 °F 53.1 °F 75% 30.22 in 10.0 mi Calm Calm - N/A   Mostly Cloudy
8:54 AM 61.0 °F 54.0 °F 78% 30.17 in 10.0 mi Calm Calm - N/A   Mostly Cloudy
9:08 AM 63.0 °F 54.0 °F 72% 30.22 in 10.0 mi Calm Calm - N/A   Overcast
9:54 AM 66.9 °F 55.9 °F 68% 30.16 in 10.0 mi SSW 5.8 mph - N/A   Clear
10:54 AM 70.0 °F 57.0 °F 63% 30.17 in 10.0 mi South 6.9 mph - N/A   Clear
11:54 AM 73.0 °F 57.0 °F 57% 30.16 in 10.0 mi SSE 8.1 mph - N/A   Partly Cloudy
12:54 PM 71.1 °F 57.0 °F 61% 30.16 in 10.0 mi SE 9.2 mph - 0.00 in Rain Light Rain
1:17 PM 68.0 °F 61.0 °F 78% 30.23 in 1.8 mi Calm Calm - 0.08 in Rain Heavy Rain
1:25 PM 66.9 °F 60.1 °F 79% 30.22 in 1.2 mi SSE 6.9 mph - 0.16 in Rain Heavy Rain
1:30 PM 66.9 °F 61.0 °F 81% 30.22 in 2.0 mi SSE 5.8 mph - 0.18 in Rain Heavy Rain
1:50 PM 66.2 °F 59.0 °F 78% 30.22 in 4.0 mi SE 4.6 mph - 0.24 in Rain Light Rain
1:54 PM 66.9 °F 59.0 °F 76% 30.17 in 6.0 mi ESE 4.6 mph - 0.24 in Rain Light Rain
2:54 PM 66.0 °F 61.0 °F 84% 30.16 in 3.0 mi SSE 8.1 mph - 0.06 in Rain Rain
3:54 PM 70.0 °F 62.1 °F 76% 30.13 in 10.0 mi SSE 9.2 mph - 0.01 in   Mostly Cloudy
4:54 PM 73.0 °F 60.1 °F 64% 30.12 in 10.0 mi South 11.5 mph - N/A   Clear
5:54 PM 73.0 °F 60.1 °F 64% 30.11 in 10.0 mi South 8.1 mph - N/A   Mostly Cloudy
6:54 PM 71.1 °F 59.0 °F 66% 30.11 in 10.0 mi South 5.8 mph - N/A   Clear
7:54 PM 70.0 °F 59.0 °F 68% 30.10 in 10.0 mi South 4.6 mph - N/A   Mostly Cloudy
8:54 PM 68.0 °F 59.0 °F 73% 30.12 in 10.0 mi SE 3.5 mph - N/A   Clear
9:54 PM 64.9 °F 61.0 °F 87% 30.13 in 10.0 mi Calm Calm - N/A   Mostly Cloudy
10:54 PM 64.0 °F 60.1 °F 87% 30.14 in 10.0 mi Calm Calm - N/A   Partly Cloudy
11:54 PM 63.0 °F 59.0 °F 87% 30.14 in 10.0 mi South 3.5 mph - N/A   Partly Cloudy